User: anonymous   Login
Location: Unspecified
(36.9193°S, 174.7252°E)
Time: 01:26:30
(UTC+13:00)
Language:

Envisat - Orbit

View from above orbital plane
View from above orbital plane
View from above satellite
View from above satellite

Ground track
Ground track

The orbit data is extracted from the following two-line orbital elements,

1 27386U 02009A   21291.94177490  .00000058  00000-0  32510-4 0  9991
2 27386  98.1599 279.7533 0001215  90.2305 282.0093 14.38048104 28820
Epoch (UTC): 18 October 2021 22:36:09
Eccentricity: 0.0001215
inclination: 98.1599°
perigee height: 764 km
apogee height: 766 km
right ascension of ascending node: 279.7533°
argument of perigee: 90.2305°
revolutions per day: 14.38048104
mean anomaly at epoch: 282.0093°
orbit number at epoch: 2882

The dashed part of the orbit path shows where the satellite is in the earth's shadow,  

DLR